Regional Weather Roundup
Issued by NWS

Home | Current Version | Previous Version | Text Only | Print | Product List | Glossary On
Versions: 1 2 3 4 5 6 7 8 9 10 11 12 13 14 15 16 17 18 19 20 21 22 23 24 25 26 27 28 29 30 31 32 33 34 35 36 37 38 39 40 41 42 43 44 45 46 47 48 49 50
000
ASCA44 KEWX 012020
RWRMX

LATIN AMERICA AND CARIBBEAN REGIONAL WEATHER ROUNDUP
NATIONAL WEATHER SERVICE AUSTIN/SAN ANTONIO TX
200 PM CST SUN FEB 01 2015

NOTE: "FAIR" INDICATED FEW OR NO CLOUDS BELOW 12,000 FEET WITH NO
SIGNIFICANT WEATHER AND/OR OBSTRUCTIONS TO VISIBILITY.

BAJA CALIFORNIA

CITY           SKY/WX    TMP DP  RH WIND       PRES   REMARKS
LORETO         MOSUNNY   66  55  68 NE23      29.96F
LA PAZ         MOSUNNY   68  55  64 NW8       29.97
MEXICALI       SUNNY     72  36  26 N6        30.10
S.J. DEL CABO  MOSUNNY   73  54  49 SE17      29.93F
TIJUANA        SUNNY     73  36  25 CALM      30.11F

NORTHWESTERN MEXICO

CITY           SKY/WX    TMP DP  RH WIND       PRES   REMARKS
CULIACAN       MOSUNNY   77  61  57 N9        29.92
DURANGO        CLOUDY    50  48  93 S5        30.15S WCI  48
GUAYMAS        MOSUNNY   72  57  60 S12       29.92
HERMOSILLO     MOSUNNY   73  46  38 N5        30.02
CD. JUAREZ     MOSUNNY   57  45  62 N8        30.04
LOS MOCHIS     MOSUNNY   70  54  56 CALM      29.94F
OBREGON        MOSUNNY   70  54  56 W5        29.92

NORTHEASTERN MEXICO

CITY           SKY/WX    TMP DP  RH WIND       PRES   REMARKS
CHIHUAHUA      MOSUNNY   59  32  36 N16       30.10
MATAMOROS      PTSUNNY   75  64  69 SE12      29.93
MONCLOVA         N/A    N/A N/A N/A MISG        N/A
MONTERREY      PTSUNNY   72  59  64 S3        29.90F
NUEVO LAREDO   CLOUDY    72  57  60 NW9       29.93
PIEDRAS NEGRAS PTSUNNY   66  52  59 NW7       29.97
REYNOSA        CLOUDY    75  57  53 SW7       29.88
SALTILLO       RAIN      68  52  56 S7        30.07F
TORREON        PTSUNNY   64  45  48 NE10      30.05F
CD. VICTORIA   CLOUDY    70  59  68 SE7       29.89

WESTERN MEXICO

CITY           SKY/WX    TMP DP  RH WIND       PRES   REMARKS
AGUASCALIENTES CLOUDY    59  41  51 S12       30.16
COLIMA         CLOUDY    73  57  56 SW12      30.02F
DEL BAJIO      CLOUDY    64  45  48 SW8       30.23
GUADALAJARA    PTSUNNY   66  46  48 S12       30.10
MANZANILLO     PTSUNNY   84  75  74 SE12      29.92F HX  92
MAZATLAN       PTSUNNY   73  63  68 SE9       29.90F
P. VALLARTA    LGT RAIN  73  68  83 N12       29.89R
URUAPAN        PTSUNNY   68  48  49 S16       30.17F
ZACATECAS      CLOUDY    55  43  62 S23       30.14F

CENTRAL MEXICO

CITY           SKY/WX    TMP DP  RH WIND       PRES   REMARKS
CUERNAVACA     PTSUNNY   75  43  31 E7        30.09F
MEXICO CITY    PTSUNNY   70  30  23 NE12      30.20F
MORELIA        CLOUDY    66  43  42 S20       30.16
POZA RICA      MOSUNNY   77  66  69 N5        29.92F
PUEBLA         MOSUNNY   66  41  39 S13       30.23F
QUERETARO      PTSUNNY   68  41  37 N12       30.18F
S. LUIS POTOSI PTSUNNY   66  36  32 SW10      30.10F
TAMPICO        MOSUNNY   77  61  57 E9        29.89F
TOLUCA         PTSUNNY   63  34  34 S17       30.28F

SOUTHERN MEXICO

CITY           SKY/WX    TMP DP  RH WIND       PRES   REMARKS
ACAPULCO       SUNNY     86  68  54 S6        29.89F
B. DE HUATULCO PTSUNNY   81  73  78 CALM      29.92
OAXACA         SUNNY     75  39  27 SE5       30.13F
P. ESCONDIDO   MOSUNNY   88  70  55 CALM      30.02S HX  92
VERACRUZ       MOSUNNY   77  61  57 E13       29.89F
ZIHUATANEJO    MOSUNNY   90  61  37 SW6       29.90F

YUCATAN PENINSULA

CITY           SKY/WX    TMP DP  RH WIND       PRES   REMARKS
CAMPECHE       MOSUNNY   88  66  48 SE12G23   29.87F HX  90
CANCUN         MOSUNNY   81  66  61 SE13      29.99F
CHETUMAL       MOSUNNY   81  72  74 SE14      29.95F
CD. DEL CARMEN SUNNY     84  64  51 SE17      29.87F
COZUMEL        MOSUNNY   79  66  65 SE9       29.99F
MERIDA         PTSUNNY   88  63  42 SE12      29.92F
MINATITLAN     SUNNY     77  68  73 N14       29.84F
TAPACHULA      MOSUNNY   88  73  62 W12       29.85F HX  96
TUX. GUTIERREZ SUNNY     90  55  31 E7        29.89F
VILLAHERMOSA   SUNNY     82  70  65 CALM      29.88F

CENTRAL AMERICA

CITY           SKY/WX    TMP DP  RH WIND       PRES   REMARKS
BELIZE CITY    PTSUNNY   82  72  69 SE7       29.95F
MANAGUA        PTCLDY    91  70  49 E16       29.83F HX  97

CARIBBEAN

CITY           SKY/WX    TMP DP  RH WIND       PRES   REMARKS
ARUBA          MOSUNNY   86  73  66 E24G37    29.86F HX  93
CURACAO        MOSUNNY   84  75  74 E15       29.92S HX  92
KINGSTON       MOSUNNY   82  73  74 SE29      29.92F
NASSAU         MOSUNNY   73  57  56 SE12      30.14S
SAN JUAN       MOSUNNY   81  68  65 E15       30.06S
SANTO DOMINGO  LGT RAIN  72  72 100 NE5         N/A
ST. KITTS      MOSUNNY   81  70  69 N13       30.03R
ST. MAARTEN    MOSUNNY   81  66  61 NE16      30.03S

$$



USA.gov is the U.S. government's official web portal to all federal, state and local government web resources and services.